Weather History for K2D5 - November, 2012

Change the Weather History Date:

Sunday, November 18, 2012

  Actual Average (KABR) Record (KABR)
Temperature  
Mean Temperature 38 °F 28 °F  
Max Temperature 51 °F 38 °F 75 °F (1908)
Min Temperature 24 °F 18 °F -13 °F (1896)
Degree Days  
Heating Degree Days 28 37  
Month to date heating degree days 583  
Since 1 July heating degree days 1474  
Cooling Degree Days 0 0  
Month to date cooling degree days 0  
Year to date cooling degree days 525  
Moisture  
Dew Point 32 °F    
Average Humidity 92    
Maximum Humidity 100    
Minimum Humidity 62    
Precipitation  
Precipitation 0.00 in 0.02 in 1.15 in (1895)
Month to date precipitation 0.48  
Year to date precipitation 20.95  
Snow  
Snow 0.00 in - - ()
Month to date snowfall  
Since 1 July snowfall  
Snow Depth -    
Sea Level Pressure  
Sea Level Pressure 29.92 in    
Wind  
Wind Speed 6 mph (SE)    
Max Wind Speed 13 mph    
Max Gust Speed -    
Visibility 6 miles    
Events Fog    
T = Trace of Precipitation, MM = Missing Value Source: NWS Daily Summary

Daily Weather History Graph

Daily Weather History Graph

Search for Another Location

Airport or City:

Trip Planner

Search our weather history database for the weather conditions in past years. The results will help you decide how hot, cold, wet, or windy it might be!

Date:

Astronomy

Nov. 18, 2012 Rise Set
Actual Time 7:38 AM CST 4:56 PM CST
Civil Twilight 7:05 AM CST 5:29 PM CST
Nautical Twilight 6:28 AM CST 6:06 PM CST
Astronomical Twilight 5:53 AM CST 6:41 PM CST
Moon 12:02 PM CST (11/18) 10:22 PM CST (11/18)
Length of Visible Light 10h 24m
Length of Day
9h 18m
Waxing Crescent, 30% of the Moon is Illuminated
Nov 18
Waxing Crescent
Nov 20
First Quarter
Nov 28
Full
Dec 6
Last Quarter
Dec 13
New

Hourly Weather History & Observations

Time (CST) Temp. Windchill Dew Point Humidity Pressure Visibility Wind Dir Wind Speed Gust Speed Precip Events Conditions
12:15 AM 32.0 °F 25.6 °F 32.0 °F 100% 29.96 in 5.0 mi NE 6.9 mph - N/A   Mist
12:35 AM 32.0 °F 27.5 °F 32.0 °F 100% 29.97 in 6.0 mi NE 4.6 mph - N/A   Mist
12:55 AM 30.2 °F 24.3 °F 30.2 °F 100% 29.96 in 5.0 mi NNE 5.8 mph - N/A   Mist
1:15 AM 28.4 °F 23.3 °F 28.4 °F 100% 29.97 in 5.0 mi NNE 4.6 mph - N/A   Mist
1:35 AM 28.4 °F 22.2 °F 28.4 °F 100% 29.96 in 3.0 mi North 5.8 mph - N/A   Mist
1:55 AM 28.4 °F 22.2 °F 28.4 °F 100% 29.96 in 4.0 mi North 5.8 mph - N/A   Mist
2:15 AM 28.4 °F 22.2 °F 28.4 °F 100% 29.96 in 3.0 mi North 5.8 mph - N/A   Mist
2:35 AM 26.6 °F 21.2 °F 26.6 °F 100% 29.97 in 3.0 mi NNW 4.6 mph - N/A   Mist
2:55 AM 26.6 °F 22.6 °F 26.6 °F 100% 29.97 in 3.0 mi North 3.5 mph - N/A   Mist
3:15 AM 26.6 °F 22.6 °F 26.6 °F 100% 29.97 in 4.0 mi NNW 3.5 mph - N/A   Mist
3:35 AM 26.6 °F 22.6 °F 26.6 °F 100% 29.96 in 3.0 mi North 3.5 mph - N/A   Mist
3:55 AM 24.8 °F 19.1 °F 24.8 °F 100% 29.96 in 3.0 mi NW 4.6 mph - N/A   Mist
4:15 AM 24.8 °F 19.1 °F 24.8 °F 100% 29.96 in 4.0 mi NW 4.6 mph - N/A   Mist
4:35 AM 24.8 °F 16.9 °F 24.8 °F 100% 29.95 in 4.0 mi NW 6.9 mph - N/A   Mist
4:55 AM 24.8 °F - 24.8 °F 100% 29.96 in 3.0 mi Calm Calm - N/A   Mist
5:15 AM 24.8 °F 19.1 °F 24.8 °F 100% 29.96 in 3.0 mi NNW 4.6 mph - N/A   Mist
5:35 AM 24.8 °F 20.5 °F 24.8 °F 100% 29.96 in 4.0 mi NW 3.5 mph - N/A   Mist
5:55 AM 24.8 °F 20.5 °F 24.8 °F 100% 29.96 in 3.0 mi NW 3.5 mph - N/A   Mist
6:15 AM 24.8 °F - 24.8 °F 100% 29.96 in 2.5 mi Calm Calm - N/A   Mist
6:35 AM 24.8 °F - 24.8 °F 100% 29.95 in 3.0 mi Calm Calm - N/A   Mist
6:55 AM 24.8 °F 20.5 °F 24.8 °F 100% 29.96 in 1.0 mi NW 3.5 mph - N/A   Mist
7:15 AM 24.8 °F - 24.8 °F 100% 29.96 in 0.2 mi Calm Calm - N/A Fog Light Freezing Fog
7:35 AM 24.8 °F - 24.8 °F 100% 29.96 in 0.2 mi Calm Calm - N/A Fog Light Freezing Fog
7:55 AM 24.8 °F 20.5 °F 24.8 °F 100% 29.96 in 0.2 mi WSW 3.5 mph - N/A Fog Light Freezing Fog
8:15 AM 24.8 °F 20.5 °F 24.8 °F 100% 29.96 in 0.2 mi WSW 3.5 mph - N/A Fog Light Freezing Fog
8:35 AM 24.8 °F - 24.8 °F 100% 29.97 in 0.2 mi Calm Calm - N/A Fog Light Freezing Fog
8:55 AM 24.8 °F - 24.8 °F 100% 29.96 in 0.2 mi Calm Calm - N/A Fog Light Freezing Fog
9:15 AM 26.6 °F - 26.6 °F 100% 29.96 in 0.2 mi Calm Calm - N/A Fog Light Freezing Fog
9:35 AM 26.6 °F 21.2 °F 26.6 °F 100% 29.96 in 0.2 mi SSW 4.6 mph - N/A Fog Light Freezing Fog
9:55 AM 26.6 °F - 26.6 °F 100% 29.95 in 0.2 mi Calm Calm - N/A Fog Light Freezing Fog
10:15 AM 26.6 °F 22.6 °F 26.6 °F 100% 29.95 in 0.2 mi WSW 3.5 mph - N/A Fog Light Freezing Fog
10:35 AM 28.4 °F 22.2 °F 28.4 °F 100% 29.96 in 0.2 mi South 5.8 mph - N/A Fog Light Freezing Fog
10:55 AM 28.4 °F 24.6 °F 28.4 °F 100% 29.96 in 0.2 mi South 3.5 mph - N/A Fog Light Freezing Fog
11:15 AM 30.2 °F 24.3 °F 30.2 °F 100% 29.96 in 0.2 mi South 5.8 mph - N/A Fog Light Freezing Fog
11:35 AM 32.0 °F 26.4 °F 32.0 °F 100% 29.95 in 0.2 mi South 5.8 mph - N/A Fog Light Freezing Fog
11:55 AM 32.0 °F 25.6 °F 32.0 °F 100% 29.95 in 0.5 mi SSE 6.9 mph - N/A Fog Fog
12:15 PM 35.6 °F 29.9 °F 35.6 °F 100% 29.94 in 5.0 mi South 6.9 mph - N/A   Mist
12:35 PM 37.4 °F 32.1 °F 37.4 °F 100% 29.93 in 10.0 mi South 6.9 mph - N/A   Unknown
12:55 PM 41.0 °F 36.4 °F 41.0 °F 100% 29.92 in 10.0 mi SSE 6.9 mph - N/A   Unknown
1:15 PM 44.6 °F 40.2 °F 39.2 °F 81% 29.92 in 10.0 mi South 8.1 mph - N/A   Clear
1:35 PM 46.4 °F 43.5 °F 39.2 °F 76% 29.91 in 10.0 mi SE 5.8 mph - N/A   Clear
1:55 PM 48.2 °F - 39.2 °F 71% 29.90 in 10.0 mi SSE 9.2 mph - N/A   Clear
2:15 PM 50.0 °F - 37.4 °F 62% 29.89 in 10.0 mi SSE 9.2 mph - N/A   Clear
2:35 PM 50.0 °F - 39.2 °F 66% 29.89 in 10.0 mi SSE 8.1 mph - N/A   Clear
2:55 PM 51.8 °F - 39.2 °F 62% 29.88 in 10.0 mi SE 11.5 mph - N/A   Clear
3:15 PM 50.0 °F - 39.2 °F 66% 29.88 in 10.0 mi SE 10.4 mph - N/A   Scattered Clouds
3:35 PM 50.0 °F - 39.2 °F 66% 29.87 in 10.0 mi East 10.4 mph - N/A   Scattered Clouds
3:55 PM 51.8 °F - 39.2 °F 62% 29.87 in 10.0 mi East 10.4 mph - N/A   Mostly Cloudy
4:15 PM 50.0 °F - 41.0 °F 71% 29.87 in 10.0 mi ESE 11.5 mph - N/A   Mostly Cloudy
4:35 PM 48.2 °F - 39.2 °F 71% 29.88 in 10.0 mi East 9.2 mph - N/A   Clear
4:55 PM 44.6 °F 38.8 °F 39.2 °F 81% 29.87 in 10.0 mi ESE 11.5 mph - N/A   Clear
5:15 PM 44.6 °F 38.8 °F 39.2 °F 81% 29.87 in 10.0 mi ESE 11.5 mph - N/A   Clear
5:35 PM 48.2 °F - 39.2 °F 71% 29.87 in 10.0 mi ESE 12.7 mph - N/A   Scattered Clouds
5:55 PM 46.4 °F 41.1 °F 37.4 °F 71% 29.87 in 10.0 mi ESE 11.5 mph - N/A   Scattered Clouds
6:15 PM 44.6 °F 38.8 °F 37.4 °F 76% 29.88 in 10.0 mi ESE 11.5 mph - N/A   Scattered Clouds
6:35 PM 44.6 °F 40.2 °F 37.4 °F 76% 29.88 in 10.0 mi East 8.1 mph - N/A   Mostly Cloudy
6:55 PM 41.0 °F 34.7 °F 37.4 °F 87% 29.88 in 10.0 mi ESE 10.4 mph - N/A   Scattered Clouds
7:15 PM 39.2 °F 32.0 °F 37.4 °F 93% 29.88 in 10.0 mi SE 11.5 mph - N/A   Partly Cloudy
7:35 PM 41.0 °F 34.3 °F 37.4 °F 87% 29.87 in 10.0 mi SE 11.5 mph - N/A   Clear
7:55 PM 41.0 °F 33.9 °F 37.4 °F 87% 29.86 in 10.0 mi SE 12.7 mph - N/A   Clear
8:15 PM 39.2 °F 32.0 °F 37.4 °F 93% 29.86 in 10.0 mi SE 11.5 mph - N/A   Clear
8:35 PM 39.2 °F 33.6 °F 37.4 °F 93% 29.87 in 10.0 mi SSE 8.1 mph - N/A   Mostly Cloudy
8:55 PM 39.2 °F 33.0 °F 37.4 °F 93% 29.87 in 10.0 mi SSE 9.2 mph - N/A   Mostly Cloudy
9:15 PM 39.2 °F 33.0 °F 37.4 °F 93% 29.88 in 10.0 mi SSE 9.2 mph - N/A   Mostly Cloudy
9:35 PM 41.0 °F 34.3 °F 37.4 °F 87% 29.88 in 10.0 mi South 11.5 mph - N/A   Clear
9:55 PM 39.2 °F 32.0 °F 37.4 °F 93% 29.87 in 10.0 mi SSE 11.5 mph - N/A   Clear
10:35 PM 35.6 °F 29.9 °F 35.6 °F 100% 29.87 in 10.0 mi SE 6.9 mph - N/A   Clear
11:15 PM 33.8 °F 25.8 °F 33.8 °F 100% 29.87 in 10.0 mi SSE 10.4 mph - N/A   Clear
11:35 PM 33.8 °F 26.4 °F 33.8 °F 100% 29.86 in 10.0 mi SSE 9.2 mph - N/A   Clear
11:55 PM 35.6 °F 29.2 °F 35.6 °F 100% 29.87 in 10.0 mi South 8.1 mph - N/A   Clear